Погода в Крещенке

Погода в Крещенке : погода сейчас, прогноз погоды и архив. Всё, что Вы хотите узнать о погоде в Крещенке!

Хотите узнать прогноз погоды в Крещенке? Тогда Вам сюда: Погода в Крещенке

Поиск расширенной информации на нашем сайте:

Другие новости

Новости СМИ2

Главная страница сайта

Новости сайта

03.07.2017

Напоминаем, что на нашем специализированном сайте Метеоцентр.Азия вы можете получить высокодетализированные автоматические прогнозы погоды по пунктам России, СНГ и мира в авиационном формате (включающие направление и скорость ветра, видимость, явления погоды, количество и форму облачности, нижнюю и верхнюю границу облачности).

Рекомендуем: Подключение к Таксик приложения на google play Таксик.

Погода в Крещенке - сегодня

Время (UTC), дата Ветер
(°,м/с) 
Видим.   Явления Облачность Т
(°С)
Тd
(°С)
f(%) Тe
(°С)
Pmin
(гПа)
dP
(гПа)
Po
(мм)
O2
(г/м3)
Тmin Tmax R s Состояние
почвы
18 15.04.18 230 (ЮЗ) 20000 м    9/9 300 м кучево-дожд. 
[Cb cap]
+3.3 -2.3 67 +2  1006.1  -1.2  743  296           
21 15.04.18 230 (ЮЗ) 20000 м    9/9 300 м кучево-дожд. 
[Cb cap]
+3.2 -1.3 72 +3  1004.7  -1.4  742  296           
00 16.04.18 210 (ЮЗ) 20000 м    10/10 300 м кучево-дожд. 
[Cb cap]
+3.2 -1.8 70 +3  1003.1  -1.6  740  295  +2.9      мокрый или
старый снег
10-40% 
03 16.04.18 230 (ЮЗ) 20000 м    10/8 300 м кучево-дожд., верхняя 
[Cb cap|Ci sp]
+4.7 -0.7 68 +4  1002.2  -0.8  740  293           
06 16.04.18 230 (ЮЗ) 10 км  слаб. ливневой дождь  10/10 300 м кучево-дожд. 
[Cb cap]
+3.9 +2 87 +2  1001.1  -1.1  739  293           
12 16.04.18 230 (ЮЗ) 2{10}  10 км  слаб. ливневой дождь  10/10 300 м кучево-дожд. 
[Cb cap]
+4.2 +1.9 85 +4  999.2  -0.7  738  292    +4.9     
00 17.04.18 260 (З) 20000 м    3/3 600 м 
[Sc]
-2.9 -5.3 83 -6  1007.7  1.2  744  303  -3    равномерный
сухой снег
100% 
12 17.04.18 280 (З) 6{13}  20000 м  {ливн. осадки}  9/9 300 м кучево-дожд. 
[Cb cap]
-1.6 -10.4 51 -5  1015.9  1.7  750  305    -0.9  0.0     
15 17.04.18 290 (З) 1{10}  20000 м    ясно 
-4.1 -9.4 67 -4  1017.6  1.5  751  308           
18 17.04.18 270 (З) 20000 м    ясно 
-6.3 -9.2 80 -6  1019  1.3  752  311           
21 17.04.18 300 (СЗ) 20000 м    ясно 
-8.3 -10 87 -8  1020.5  1.4  753  314           
00 18.04.18 тихо ()   20000 м    6/6 600 м 
[Sc]
-7.9 -10 85 -8  1021.3  0.7  753  314  -8.5      мокрый или
старый снег
10-40% 
03 18.04.18 310 (СЗ) 20000 м    ясно 
-2.4 -12 48 -2  1022.7  1.7  755  308           
06 18.04.18 290 (З) 20000 м    4/4 300 м 
[Cu med, cong]
-0.6 -11.4 44 -2  1022.9  0.4  755  306           
09 18.04.18 310 (СЗ) 20000 м    8/8 300 м 
[Cu med, cong]
-0.1 -11.8 41 -2  1022.5  -0.4  755  305           
12 18.04.18 270 (З) 20000 м    3/3 300 м верхняя 
[Cu med, cong|Ci fib]
+0.7 -11.9 38 -1  1021.8  -0.7  754  304    +1.2       
15 18.04.18 330 (СЗ) 20000 м    8/3 300 м верхняя 
[Sc|Ci sp]
-2 -11.4 49 -1  1022.3  0.4  754  307           
18 18.04.18 110 (В) 20000 м    ясно 
-4.7 -9.4 70 -4  1022.5  754  310           
21 18.04.18 110 (В) 20000 м    10/0 верхняя 
[Ci fib]
-5.3 -9.7 71 -5  1021.8  -0.7  754  311           
00 19.04.18 050 (СВ) 20000 м    10/10 300 м кучево-дожд. 
[Cb cap]
-4.2 -7.5 78 -4  1020.6  -1.1  753  309  -6.1      мокрый или
старый снег
10-40% 
03 19.04.18 100 (В) 20000 м  {ливн. осадки}  6/6 600 м 
[Sc]
-0.9 -5.4 71 -2  1019.4  -1  752  305           
06 19.04.18 220 (ЮЗ) 20000 м  {ливн. осадки}  8/8 300 м 
[Cu med, cong]
+4.7 -8.8 37 +4  1017.2  -1.8  751  298           
09 19.04.18 230 (ЮЗ) 3{10}  20000 м    9/9 300 м кучево-дожд. 
[Cb cap]
+5.8 -7.9 37 +5  1015.7  -1.5  750  297           
12 19.04.18 280 (З) 20000 м    3/3 300 м кучево-дожд. 
[Cb cap]
+5.5 -5.7 44 +4  1015.3  -0.4  750  297    +6.4  0.0     
15 19.04.18 280 (З) 20000 м    4/0 верхняя 
[Ci fib]
+0.1 -6 64 -1  1016.8  1.2  750  303           
Время (UTC), дата Ветер
(°,м/с) 
Видим.   Явления Облачность Т
(°С)
Тd
(°С)
f(%) Тe
(°С)
Pmin
(гПа)
dP
(гПа)
Po
(мм)
O2
(г/м3)
Тmin Tmax R s Состояние
почвы

Для получения пояснительной информации подведите курсор к названию столбца.

ПОГОДА в Крещенке - архив

Всё, что Вы хотите узнать о погоде в Крещенке - удобно и подробно!

Выберите нужную дату (начиная с 1 января 2015* года) и нажмите кнопку "Найти".
Будут отображены архивные сводки погоды по пункту Крещенка, начиная с указанной даты.


Отображать данные в формате CSV (для использования в таблицах Excel)


Внимание! Наш архив погоды предназначен исключительно для личного некоммерческого использования в познавательных целях. Если Вам необходимы официальные справки о состоянии погоды (для производственных, юридических, коммерческих и т.п. целей), обращайтесь в органы Росгидромета.

*Примечание: данная дата относится к архиву по метеостанциям СССР (Россия, СНГ, Балтия).
Архив по метеостанциям Зарубежной Европы и Азии (кроме Китая) хранится 10 дней, по другим регионам земного шара (Китай, Африка, Америка, Австралия, Океания) - 1 день.

Крещенка - район местоположения метеостанции


Название, широта, долгота, высота метеостанции:
Крещенка 55.9°ш. 80°д. 129 м над ур. моря [Российская Федерация]

Дополнительная информация

В oтличие oт бoльшинства пoгoдных сайтoв мы публикуем пoдрoбную метеoинфoрмацию в детальнoм прoфессиoнальнoм фoрмате.

Характеристики температуры и влажнoсти вoздуха измеряются на высoте 2 м в тени вдали oт зданий и деревьев.
Скoрoсть ветра измеряется на высoте 10 м (на урoвне рoста челoвека скoрoсть ветра ниже в 1.5-2 раза). Если метеoстанция нахoдится в гoрoде или в лесу, тo скoрoсть ветра занижена на 2-4 м/с пo сравнению с oткрытым местoм. Скoрoсть ветра над акватoриями крупных рек и oзёр, а также на вершинах хoлмoв на 2-5 м/с выше, чем в oбычных услoвиях.
Атмoсфернoе давление в разных тoчках местнoсти мoжет значительнo oтличаться oт давления на метеoстанции, в зависимoсти oт услoвий рельефа (при пoдъёме на 10 м давление пoнижается примернo на 1 мм рт.ст.).